Wind_Speed
23 24 26 30 34 38 41 43 44 44 44 45 45 46 47 48 49 50 51 52 53 54 54 55 55 55 56 57 57 58 58 58 58 59 60 62 63 64 65 66 67 67 69 70 72 74 75 76 77 78 79 79 79 77 78 80 80 80 76 70 63 59 63 70 72 71 69 68 70 70 69 65 62 62 62 65 68 70 71 68 65 63 59 58 57 55 52 53
22 22 21 21 23 27 33 39 43 45 46 46 46 47 48 49 50 51 53 54 55 56 56 57 58 58 58 60 61 61 62 62 61 61 62 64 64 65 66 67 68 69 69 70 71 73 75 76 78 80 80 80 80 80 81 82 83 83 77 70 64 59 60 66 70 71 71 72 72 72 72 70 66 65 65 67 68 71 73 71 67 63 60 57 56 55 55 56
23 23 23 21 20 20 22 27 34 41 45 47 48 48 49 50 52 53 54 55 56 57 58 59 60 61 61 62 64 65 65 65 64 65 67 67 68 68 68 69 69 70 71 72 72 72 74 76 78 80 81 81 81 82 83 84 84 83 80 72 64 62 64 66 68 69 70 73 77 78 74 73 72 69 70 71 69 69 71 71 69 64 61 59 56 55 56 59
24 23 24 23 22 21 21 21 24 30 36 41 45 48 50 52 53 55 56 58 59 60 61 62 63 63 64 65 66 67 68 69 68 70 71 71 72 72 71 71 71 72 72 73 74 74 75 76 78 79 81 81 82 84 85 84 84 84 81 75 67 67 69 68 70 71 70 72 77 82 80 76 75 74 74 73 71 69 67 70 71 66 62 62 60 60 59 58
27 26 25 25 24 24 24 24 24 26 29 33 37 41 44 47 49 52 54 56 58 60 62 63 65 66 67 68 69 70 71 71 72 74 75 76 76 75 75 75 75 75 74 75 75 76 77 78 79 79 79 80 82 85 85 84 85 86 83 76 72 73 72 71 74 73 72 75 76 80 84 82 79 77 76 75 73 71 67 68 71 70 67 65 64 64 63 61
30 30 29 29 28 27 27 27 27 28 30 32 34 36 39 42 44 46 49 51 53 55 57 59 60 63 65 67 68 70 72 73 74 76 79 79 80 79 80 80 80 79 78 77 77 78 78 79 80 80 80 80 82 83 83 84 88 89 84 77 76 76 75 74 76 74 75 79 77 77 81 85 84 79 78 79 76 74 70 69 71 74 71 67 67 66 66 65
32 32 32 32 32 32 32 32 32 32 33 34 36 37 40 42 44 46 48 51 52 54 56 57 59 60 63 64 66 67 69 72 73 76 80 82 84 84 85 84 84 83 82 82 81 81 81 81 81 82 82 82 82 82 82 85 89 89 84 79 77 77 77 77 78 76 78 81 79 78 80 84 87 83 80 79 78 77 73 71 73 75 70 67 69 68 67 67
31 31 32 33 34 34 35 35 35 36 37 38 39 40 41 43 45 47 49 51 54 56 58 60 62 63 65 67 68 69 69 71 72 74 78 83 85 86 88 88 88 86 86 86 86 85 84 84 84 84 84 83 84 84 85 87 89 87 82 78 78 79 78 79 82 80 81 83 81 82 84 84 85 85 83 79 78 78 75 75 77 73 68 67 69 69 68 67
29 30 30 31 32 34 35 36 37 38 39 40 41 43 44 45 46 47 49 51 54 57 59 62 64 66 69 71 72 73 73 73 75 77 79 82 84 86 88 90 90 89 89 90 89 89 88 87 88 88 87 86 86 86 87 89 88 83 78 78 80 81 80 82 86 85 84 86 85 85 86 84 82 83 84 82 80 79 77 77 78 72 68 69 68 69 69 68
30 30 29 30 30 31 32 33 35 36 38 40 42 43 44 45 46 47 49 51 53 55 59 62 65 68 71 74 75 76 77 76 78 81 84 86 86 87 89 90 90 89 90 92 93 93 92 91 92 92 91 89 88 87 88 90 87 82 79 79 81 83 84 87 90 89 87 88 88 86 85 83 81 83 84 83 81 80 78 77 78 74 70 69 68 69 69 68
32 31 31 30 30 30 30 31 32 34 36 38 39 41 42 43 45 46 48 49 51 54 57 61 64 68 71 75 77 79 80 79 80 83 87 90 90 90 91 92 92 91 91 92 93 94 95 95 96 96 94 91 91 90 90 90 86 83 82 81 81 83 87 90 92 90 88 89 88 86 84 84 85 87 84 81 80 80 79 78 79 77 73 70 68 67 66 67
35 34 33 33 32 31 31 32 33 34 36 37 38 38 39 40 41 43 46 48 50 53 56 59 62 66 71 75 77 79 81 82 83 85 88 91 93 93 93 93 94 95 95 95 95 95 95 97 98 98 96 94 94 94 93 91 87 85 85 83 82 84 87 91 91 89 89 90 87 86 87 87 89 88 80 75 76 79 82 83 83 81 77 73 69 64 63 66
38 37 36 35 34 33 33 33 35 37 38 38 38 39 39 40 42 44 46 48 50 53 55 59 62 66 71 75 76 78 81 83 85 87 89 91 93 94 94 95 96 96 96 97 98 99 98 98 99 99 98 97 97 97 95 93 91 88 87 85 84 86 87 90 89 87 89 89 85 88 91 89 88 84 76 73 74 77 83 87 88 88 83 75 70 65 62 67
40 40 39 38 36 35 35 36 38 39 41 41 42 43 43 44 45 47 49 49 50 53 55 58 62 66 70 74 77 79 81 83 84 86 88 90 91 93 95 97 98 97 97 97 99 100 101 101 101 100 99 98 98 98 99 98 95 92 90 87 86 87 87 87 86 84 87 88 86 91 93 88 85 80 75 73 75 79 84 87 90 94 89 77 72 71 68 72
42 42 41 40 40 39 39 40 41 42 44 45 46 47 47 47 47 48 50 50 49 51 54 57 60 64 67 71 75 76 77 80 82 83 85 86 87 89 94 97 98 98 99 99 100 101 102 103 103 102 102 101 100 101 102 101 99 95 94 91 87 86 85 84 85 84 85 85 86 92 93 87 83 79 75 74 77 83 86 86 88 92 88 76 72 75 74 76
44 44 43 43 43 43 43 43 44 45 46 47 47 49 50 48 48 49 50 49 48 49 51 54 57 60 62 65 68 69 71 74 75 77 80 80 80 83 87 90 92 95 97 100 101 102 103 104 103 101 102 104 105 105 104 103 102 99 97 93 88 86 84 83 85 84 83 83 87 92 91 85 81 79 77 78 82 86 86 86 87 89 86 74 70 73 73 74
46 47 47 47 47 47 47 47 47 47 48 49 49 51 52 51 50 50 50 48 48 48 49 51 54 56 58 59 60 63 65 68 71 73 77 77 76 78 81 83 84 86 89 94 99 102 104 105 105 103 102 104 107 108 107 105 102 99 97 93 89 87 84 83 84 83 82 84 89 92 88 82 80 79 80 83 87 88 86 85 86 88 86 76 71 71 69 71
50 51 51 51 51 51 51 51 51 51 51 52 52 53 54 53 52 52 51 48 47 48 49 50 51 52 54 54 55 58 61 64 68 71 76 77 75 76 78 79 79 79 80 84 91 96 100 104 106 106 105 105 106 108 109 106 101 98 96 94 91 89 87 84 84 83 85 88 91 92 86 77 77 81 84 88 89 89 86 85 86 87 86 78 72 72 70 71
55 56 56 56 56 55 55 54 54 55 55 56 56 55 56 56 55 55 54 50 48 49 49 48 48 49 51 49 49 54 57 60 64 66 70 73 72 71 74 74 74 74 74 76 80 86 92 98 102 104 105 105 106 107 107 104 102 101 99 97 94 93 91 88 88 88 89 92 93 92 85 75 75 82 87 89 89 89 88 87 87 88 86 78 72 72 71 72
60 61 61 61 60 60 59 58 58 58 59 60 60 59 58 58 57 57 58 53 47 48 51 48 45 47 49 47 47 48 52 57 60 60 61 65 67 67 68 69 70 70 70 70 72 76 82 89 95 97 100 103 105 108 108 106 105 106 105 103 99 97 95 93 93 93 92 94 93 91 84 76 77 83 86 87 87 88 89 89 89 89 86 79 74 73 72 70
63 65 65 65 65 64 63 61 61 61 61 62 62 62 61 60 59 59 61 59 50 46 50 49 45 45 45 45 47 46 47 51 55 56 54 56 62 64 64 64 65 66 65 64 65 68 72 79 84 88 92 99 104 107 108 108 108 109 110 108 104 101 99 97 97 96 95 96 94 89 83 78 79 84 86 85 86 88 88 89 90 88 85 81 77 75 73 71
65 67 68 69 68 68 66 65 64 64 64 64 64 64 64 62 61 60 61 63 57 50 50 49 45 44 42 43 46 45 44 45 50 53 51 51 54 58 60 60 60 61 60 59 59 61 64 68 75 81 86 93 100 105 106 107 109 111 112 112 109 104 102 101 101 99 98 98 94 88 82 79 81 85 87 87 87 87 85 87 88 86 83 82 79 77 75 72
66 68 69 71 71 71 70 68 67 66 66 66 67 67 66 65 64 63 61 62 61 57 53 49 46 44 42 44 45 44 43 43 46 48 47 48 49 52 54 56 57 58 58 56 54 54 56 60 69 77 82 88 94 100 102 103 107 110 112 113 111 108 106 104 102 100 98 97 95 89 83 81 83 88 91 91 89 85 81 83 85 84 82 81 80 80 78 73
66 69 71 73 74 73 73 71 69 68 67 68 69 69 69 68 67 66 64 62 61 59 56 50 47 44 42 45 47 45 43 43 44 45 44 44 44 46 49 51 52 54 56 53 50 49 50 55 66 74 79 83 89 94 98 100 103 108 112 113 112 111 109 105 102 101 100 99 97 93 89 85 86 91 94 92 87 82 79 81 83 81 79 79 80 82 79 72
66 70 73 75 76 76 75 74 72 70 69 69 71 71 71 70 69 67 65 63 61 59 57 52 48 45 43 45 48 47 45 43 42 41 42 43 41 41 45 47 47 49 51 51 47 45 47 54 63 70 74 78 83 89 93 95 99 104 109 111 112 111 110 106 104 103 103 102 100 96 93 88 87 90 92 88 84 81 81 82 81 76 75 77 80 80 75 70
67 70 74 76 78 78 77 76 74 72 71 71 72 73 72 72 70 68 66 64 61 58 56 53 49 47 45 45 47 47 46 44 42 39 39 41 41 39 41 44 44 45 46 47 45 44 48 55 62 68 72 75 80 85 88 91 95 101 106 109 111 111 111 109 107 107 106 104 100 98 95 90 88 90 90 86 82 81 81 82 79 74 72 74 75 74 71 69
67 71 74 77 78 80 79 78 77 75 73 73 74 75 75 74 72 70 67 64 61 58 54 50 47 46 46 46 45 45 45 43 41 40 39 40 40 39 40 41 40 41 42 41 42 45 50 55 60 65 70 73 75 80 85 88 91 96 101 106 109 111 112 111 110 110 109 106 103 102 98 94 93 92 88 85 83 80 80 80 78 73 69 69 69 69 67 66
68 71 74 76 78 79 80 81 80 78 77 77 78 79 78 77 74 71 69 65 62 59 54 48 45 44 46 48 46 42 41 41 39 38 39 39 39 39 39 39 37 37 39 37 39 45 48 51 56 62 69 71 70 73 79 85 88 90 95 103 107 110 112 111 112 113 111 108 106 104 100 97 96 92 87 86 84 81 79 77 74 69 66 67 67 67 64 61
69 72 74 76 78 79 81 82 82 82 81 80 81 81 80 78 76 73 70 67 63 60 56 50 46 45 46 47 46 41 38 38 36 34 36 37 36 36 36 36 34 35 36 34 36 42 45 48 54 59 64 67 66 68 75 81 84 85 90 99 105 109 111 111 112 114 113 111 108 104 101 99 96 91 88 87 85 81 76 72 68 65 66 69 69 67 61 57
69 73 75 76 78 79 80 81 82 82 82 82 82 81 81 80 78 74 70 67 65 61 57 51 47 46 46 45 44 43 40 38 36 34 34 34 33 32 32 32 31 32 33 32 33 39 42 46 52 55 58 62 64 65 70 76 78 80 86 94 101 107 109 110 113 116 117 116 111 107 105 103 98 93 92 89 82 76 71 67 64 63 67 72 73 68 60 56
70 73 76 78 79 80 80 81 82 82 82 83 83 83 82 81 79 75 71 68 66 62 57 53 49 47 48 47 45 45 44 40 38 36 33 33 32 30 28 28 28 29 31 30 29 34 38 41 47 51 54 59 62 63 65 68 71 76 83 90 98 104 108 110 114 117 120 119 114 110 109 107 101 95 93 89 78 70 68 67 64 63 67 73 73 66 58 57
71 74 77 79 81 82 82 83 84 84 85 85 85 85 84 82 80 76 71 68 65 61 56 53 51 48 47 48 45 43 42 39 37 36 34 32 31 30 28 26 25 26 28 27 26 29 34 37 41 46 51 55 58 60 62 63 64 70 79 87 95 101 106 109 113 117 118 117 114 112 110 108 103 95 91 85 74 68 69 69 64 63 66 70 69 62 58 59
71 75 79 81 82 84 85 85 86 87 87 87 87 86 84 82 80 76 71 67 65 62 56 52 51 51 48 47 45 41 38 35 33 34 34 31 29 28 27 24 23 23 24 24 24 26 30 33 36 42 47 51 54 56 58 59 61 66 73 82 89 95 101 106 110 114 115 114 112 110 109 107 102 95 89 83 73 67 68 68 66 65 66 67 66 60 60 64
72 76 80 82 84 86 88 89 89 88 89 89 89 87 84 82 79 75 71 69 67 63 57 52 51 54 53 50 48 43 38 34 32 31 31 29 26 24 24 22 21 21 21 22 22 24 27 30 34 38 42 47 51 54 55 57 61 65 69 76 83 89 94 100 106 110 112 112 110 108 109 107 102 97 89 80 74 69 67 68 69 70 68 67 64 60 62 66
72 76 80 83 85 87 89 90 89 89 89 91 90 88 85 81 79 76 72 69 65 60 56 53 52 54 55 53 50 45 40 35 31 29 28 27 24 22 21 19 18 18 18 18 19 21 24 28 32 36 39 44 48 51 54 57 60 63 67 73 79 84 88 94 101 107 110 110 108 108 109 105 102 97 86 79 77 73 70 71 72 72 70 67 63 60 63 66
72 76 79 82 84 86 88 88 88 89 90 92 91 89 86 83 80 77 72 68 64 59 55 53 53 52 52 51 48 43 39 35 32 30 29 25 22 20 19 17 15 15 15 15 15 18 22 25 28 31 35 38 41 46 50 52 54 57 62 67 72 79 85 90 97 104 108 108 107 107 108 104 101 98 87 81 80 75 72 72 70 69 69 65 59 59 62 64
72 74 77 79 83 85 87 88 89 90 92 92 91 90 87 84 80 76 73 69 65 61 55 52 51 50 48 47 46 42 39 36 34 31 28 24 21 18 16 15 13 13 13 13 13 16 19 22 24 28 31 34 39 44 45 46 49 51 53 58 66 77 83 87 93 100 104 105 105 107 107 104 103 101 91 83 79 75 72 71 67 66 69 64 58 59 61 62
71 73 76 79 82 85 87 89 91 93 92 91 91 90 87 83 79 75 72 70 66 63 58 54 52 51 49 48 47 43 40 38 35 32 28 24 20 17 13 11 10 10 10 11 12 14 17 19 22 25 28 32 36 39 40 43 45 48 53 60 68 76 81 84 89 95 100 101 102 105 106 103 103 101 92 82 77 75 74 72 67 66 67 64 59 60 62 61
73 73 77 80 83 86 88 90 93 94 94 92 91 90 87 83 79 74 71 69 67 63 59 56 54 53 52 50 48 45 43 40 37 33 29 25 21 17 13 10 8 7 7 8 10 13 15 18 21 23 26 28 31 34 37 41 44 50 58 63 67 73 78 81 84 89 94 97 101 104 104 103 104 100 89 80 75 75 76 74 70 67 67 64 62 61 61 59
73 74 76 78 82 85 88 91 94 95 95 93 90 88 86 81 77 74 72 71 69 64 60 56 55 54 53 50 48 45 44 40 36 32 28 24 20 17 13 11 8 6 5 6 8 11 13 16 19 22 23 25 27 30 34 38 42 47 51 54 59 66 72 75 81 86 89 94 100 103 103 103 103 96 86 79 76 76 79 77 73 70 67 64 63 63 61 57
73 74 76 78 81 84 87 89 92 94 94 92 88 86 83 80 78 77 75 73 70 65 61 57 55 54 52 50 47 45 43 39 34 29 26 22 19 15 12 9 7 5 3 4 5 8 10 13 16 19 21 24 26 30 34 38 40 43 45 50 55 61 67 73 78 82 85 92 97 99 101 103 100 92 83 78 77 78 81 78 74 71 68 65 64 63 61 57
72 74 77 78 81 84 86 89 91 93 93 92 89 85 83 81 80 79 75 72 70 66 62 58 55 54 52 49 46 44 42 38 32 26 23 20 17 15 13 10 7 4 2 1 3 5 8 10 13 16 20 25 27 30 34 37 40 43 47 52 55 60 66 70 71 75 80 87 91 94 98 100 95 87 82 80 79 81 82 78 74 72 69 66 64 63 62 58
71 74 76 79 81 83 85 89 92 94 95 94 91 88 87 85 82 78 74 71 69 65 61 57 55 54 53 49 46 44 43 38 31 25 21 19 18 17 16 12 8 5 4 2 2 5 7 9 11 14 19 24 27 29 32 36 39 43 47 51 55 60 63 64 66 71 76 81 85 89 94 95 91 86 83 83 81 82 81 76 74 73 70 66 64 63 63 59
72 75 77 79 82 83 85 88 91 94 95 94 92 92 93 89 81 76 74 71 68 65 62 58 56 55 53 50 46 45 44 39 33 28 23 20 20 19 17 14 10 6 5 5 4 5 7 9 11 13 16 20 23 24 25 28 32 37 42 47 52 55 58 62 67 70 73 77 82 87 91 93 90 87 85 82 80 81 81 78 75 73 70 67 64 63 62 58
71 75 77 79 81 83 85 87 90 92 93 93 94 94 94 89 80 75 73 71 68 65 62 58 56 54 52 50 47 46 45 40 34 30 26 22 20 19 16 13 10 8 6 7 7 7 8 10 12 13 15 17 19 20 21 23 26 30 35 40 45 49 53 59 65 67 70 74 79 84 87 87 88 86 83 81 80 81 81 78 76 73 70 69 66 62 61 57
71 74 77 80 82 83 85 87 90 91 92 93 95 94 90 87 81 74 71 70 68 65 61 57 54 53 52 50 48 46 44 40 34 31 28 23 20 18 15 12 10 10 8 9 10 9 9 11 13 15 17 19 21 23 25 28 30 31 34 38 42 45 48 53 57 61 66 70 74 78 79 78 81 83 82 81 82 82 80 78 76 74 72 71 67 63 60 57
71 73 76 80 82 83 86 88 90 92 93 94 95 93 88 84 81 76 71 69 66 63 59 55 52 52 51 49 47 45 42 38 33 30 27 23 20 18 15 12 11 11 11 11 12 12 11 12 13 14 16 18 20 23 26 29 33 35 37 39 43 45 48 50 52 55 61 65 68 71 71 71 76 81 80 80 80 81 80 79 77 74 71 70 66 62 60 57
72 74 77 80 82 83 85 88 90 92 94 95 95 92 88 84 81 77 72 68 64 61 58 54 52 51 49 47 45 44 41 36 32 29 27 24 21 19 16 13 11 12 13 13 14 14 13 12 14 15 15 17 19 21 25 28 31 35 38 41 44 46 48 49 51 52 56 60 63 66 67 69 74 80 80 79 80 80 80 78 75 72 70 68 64 61 58 56
73 76 79 82 83 84 85 88 91 92 93 95 95 93 90 84 79 76 72 68 64 61 57 53 51 49 47 45 43 41 39 35 31 28 27 25 22 20 18 14 12 12 13 14 15 16 16 15 15 16 17 18 18 20 23 26 28 31 35 39 42 44 46 48 49 49 50 55 61 64 65 67 73 78 80 79 78 77 77 75 72 69 69 67 63 58 57 56
73 77 80 83 85 85 87 89 90 91 92 94 95 95 91 85 79 75 71 67 64 60 56 52 48 46 45 44 42 39 36 34 31 28 26 24 22 21 18 15 12 13 14 15 15 16 17 18 17 17 17 18 17 17 19 23 27 30 34 39 42 44 45 46 47 45 48 54 58 60 61 65 70 74 76 78 77 74 72 71 70 69 68 66 62 57 56 56
73 76 78 81 84 85 87 88 89 90 92 94 94 94 92 86 79 73 69 65 60 57 54 50 46 45 43 42 40 38 35 33 30 27 24 22 21 20 18 15 13 14 16 16 15 16 17 18 19 17 18 19 19 18 18 21 26 30 33 36 39 42 44 45 45 44 46 50 54 58 59 61 67 68 67 70 69 64 61 62 66 69 66 62 60 59 57 56
75 76 78 80 83 85 86 88 88 89 92 94 93 93 93 87 78 71 68 64 59 55 52 48 45 44 42 40 38 37 35 32 29 25 23 21 19 19 18 17 14 16 19 18 16 16 17 19 19 18 18 18 18 20 20 20 24 29 32 34 36 39 41 43 43 42 44 47 51 56 55 55 63 65 60 62 63 55 52 55 61 66 65 60 57 56 55 54
Wind_Direction
296 295 291 285 278 272 267 264 263 263 263 262 263 263 263 264 264 264 264 264 263 263 262 262 261 260 258 257 257 256 255 254 252 251 250 250 249 248 247 246 245 244 244 242 242 241 241 240 239 238 238 239 239 238 238 239 238 236 235 233 232 229 227 229 230 232 234 238 243 246 244 240 238 237 237 237 237 236 238 236 231 230 230 232 235 238 240 242
298 300 302 299 292 282 273 267 264 263 263 263 263 263 263 263 263 264 264 264 264 264 264 264 263 262 260 259 258 256 256 255 254 253 251 250 249 248 247 246 246 245 244 243 242 242 242 240 239 239 238 238 239 238 238 239 239 238 235 233 231 230 228 229 231 231 229 229 235 241 243 243 240 236 234 235 235 234 235 237 234 231 230 230 234 238 239 240
307 305 305 305 304 298 288 277 269 265 264 264 264 264 264 264 264 264 264 264 264 264 264 263 263 262 262 261 260 259 257 255 254 253 252 251 250 249 248 247 246 245 244 243 242 242 242 242 241 240 238 237 238 238 238 238 239 239 236 232 229 230 230 229 230 230 229 227 229 233 235 239 240 235 232 233 235 234 234 236 236 233 230 229 230 234 237 239
321 316 311 307 304 300 295 288 280 273 269 267 266 266 267 266 266 266 266 265 265 264 264 263 263 262 261 260 260 259 258 257 256 254 253 251 250 249 249 248 247 246 245 244 243 242 241 242 242 241 240 238 238 238 238 239 239 239 237 232 228 229 229 229 230 230 230 228 228 231 231 231 236 235 232 233 236 237 236 236 237 235 232 230 228 230 234 236
327 324 320 315 310 304 297 291 285 279 274 271 269 269 269 269 269 269 268 268 267 266 265 264 264 263 261 260 259 258 257 256 256 255 254 253 251 250 249 248 247 246 245 245 244 243 242 241 242 242 241 240 239 238 238 239 239 239 236 232 229 228 228 229 230 229 231 230 228 231 232 230 232 235 236 235 237 240 240 238 238 237 234 232 230 229 233 235
326 324 322 319 316 312 307 301 294 287 281 277 274 271 270 269 269 269 268 268 268 267 267 266 265 264 263 261 260 258 257 255 254 254 254 253 252 251 250 248 247 246 245 245 244 244 243 242 242 241 241 240 240 239 238 238 238 238 236 232 230 229 227 228 230 229 230 232 229 230 233 233 231 231 235 239 240 241 241 241 240 238 234 232 232 229 231 235
324 322 320 318 315 313 310 307 303 299 294 289 285 280 277 274 272 270 269 268 268 267 266 266 265 264 264 263 261 260 259 257 255 254 254 253 252 251 250 249 248 247 246 245 244 244 244 243 243 242 241 240 240 240 239 238 238 237 235 233 231 230 228 228 230 230 231 232 230 231 233 234 232 229 231 237 241 242 243 243 241 239 236 233 235 234 233 236
322 319 317 315 313 311 309 306 304 302 299 296 294 290 287 284 281 278 275 273 271 270 269 267 266 265 264 263 261 260 259 258 257 255 254 254 253 251 250 249 248 247 246 245 245 244 243 243 243 243 242 240 240 239 239 239 238 237 236 234 232 231 230 229 230 229 230 232 230 231 233 233 233 230 229 233 237 241 242 242 242 240 238 235 236 238 237 238
321 318 316 313 311 309 307 305 304 302 299 297 295 292 290 287 285 282 279 277 275 274 273 271 270 269 267 266 264 262 260 259 258 256 255 254 254 253 252 251 249 247 246 245 245 244 243 242 242 242 242 241 240 239 239 239 239 237 235 234 233 231 230 230 230 228 229 231 229 230 233 234 234 232 230 231 234 238 239 241 244 242 239 237 235 237 239 239
323 319 316 314 311 309 307 305 304 302 300 297 294 291 289 287 284 282 280 278 276 275 273 272 272 271 270 268 267 267 265 263 261 259 258 257 255 254 253 253 252 250 248 246 245 244 244 243 242 242 241 241 240 240 239 240 240 238 235 233 233 231 230 230 230 228 228 231 230 230 232 234 235 234 232 230 231 235 237 239 243 244 242 239 236 236 239 241
326 323 319 316 313 310 308 307 306 304 302 299 296 293 290 288 286 284 282 280 278 275 273 272 271 270 269 268 267 266 266 264 263 261 260 259 258 257 255 254 253 252 250 249 247 245 244 243 242 242 241 241 241 240 240 240 239 238 236 233 232 231 231 231 230 229 229 230 231 231 232 233 234 235 233 231 231 234 237 238 239 241 242 241 239 236 238 241
328 326 323 319 315 312 310 309 310 310 308 305 301 299 297 295 293 290 287 285 282 280 277 275 273 271 270 268 267 266 265 264 263 261 260 259 259 258 257 256 255 253 252 250 249 247 245 243 242 242 241 240 240 240 240 240 238 237 236 234 232 232 232 232 231 230 230 231 231 232 232 232 233 234 234 234 234 234 236 238 237 238 238 239 240 239 238 240
330 328 326 323 319 316 314 313 314 314 313 312 310 309 308 305 303 299 295 291 288 285 283 280 277 275 272 271 270 268 266 265 264 263 261 260 259 258 258 257 255 254 253 251 250 249 248 246 244 243 241 240 239 240 240 240 239 237 236 234 232 232 231 232 232 231 232 232 231 232 232 232 234 235 235 236 236 236 236 237 238 238 237 235 237 240 240 243
334 332 330 328 325 322 320 319 319 318 319 320 320 318 316 313 309 304 299 295 292 289 286 283 279 276 274 273 271 270 269 267 266 265 263 262 260 259 258 256 255 254 253 251 250 249 248 247 245 244 243 241 239 239 239 239 238 237 236 234 232 232 231 232 233 232 233 233 231 233 234 232 234 235 235 236 237 238 237 237 238 239 237 234 235 238 239 243
339 336 335 333 332 329 327 325 325 325 326 326 324 321 318 315 312 306 301 298 295 292 288 284 281 277 275 274 272 271 270 269 267 266 265 264 262 260 258 257 256 255 254 252 250 249 248 246 244 243 242 242 240 238 238 237 237 236 236 234 233 233 233 232 233 232 233 233 232 234 234 232 233 234 234 235 237 238 238 238 239 240 239 235 234 237 238 242
343 341 339 338 337 335 333 331 331 331 329 327 325 322 319 318 314 309 305 303 301 297 293 289 284 281 279 276 275 275 273 271 270 269 267 266 264 262 259 257 256 254 253 252 251 249 248 247 245 243 241 241 240 239 238 236 235 235 235 234 233 233 233 233 234 233 233 234 234 234 234 232 231 232 233 234 235 237 239 239 240 242 241 236 232 235 237 240
348 346 343 342 341 339 338 336 334 333 330 328 326 324 322 321 318 314 311 310 308 304 300 294 290 287 283 280 279 277 276 275 275 273 272 270 268 266 263 261 258 255 252 251 250 249 248 247 246 243 241 240 239 239 238 237 236 235 235 234 234 233 233 232 233 234 234 234 235 235 233 231 231 231 231 233 234 236 238 239 241 242 242 237 233 234 234 237
350 349 348 346 345 343 341 338 336 334 332 330 329 327 326 325 323 320 317 316 315 312 306 301 296 291 286 283 281 278 276 275 274 273 273 272 270 268 266 264 262 259 254 250 248 247 246 245 245 243 241 240 239 238 238 237 237 236 236 235 234 234 233 232 232 233 233 233 235 236 233 229 230 231 231 232 233 235 237 239 241 241 242 239 235 235 235 237
352 352 351 349 348 345 342 340 337 335 333 332 331 331 330 329 328 326 323 322 321 318 311 306 301 294 288 284 279 277 277 275 273 271 271 272 271 268 267 265 263 261 257 253 248 246 244 243 242 241 240 240 239 238 237 236 236 236 235 234 232 232 232 231 231 231 231 232 232 234 232 227 228 231 231 231 233 235 235 237 240 241 241 239 237 236 236 237
352 352 352 351 349 347 344 341 339 336 335 334 333 333 333 333 332 330 327 325 326 323 315 311 306 297 293 290 284 281 280 278 276 273 272 273 272 269 267 265 264 261 258 255 250 246 243 242 241 240 238 238 238 237 236 234 233 233 233 232 230 229 229 229 230 230 231 232 231 232 231 226 227 231 232 232 232 234 235 235 238 240 241 239 238 237 237 237
352 352 352 351 350 348 345 342 340 338 336 335 335 335 335 336 335 334 331 328 329 327 319 315 310 301 297 295 292 289 286 282 279 276 274 272 272 271 268 266 264 262 259 255 251 246 242 240 240 239 237 236 236 235 233 232 230 230 231 231 230 228 228 228 229 229 230 232 232 231 229 226 226 230 232 232 231 233 234 234 237 240 241 240 238 238 238 238
351 351 351 350 349 348 346 344 342 339 337 336 336 337 337 338 338 337 334 330 330 329 323 319 314 306 302 299 297 296 293 287 284 281 278 274 271 270 269 267 265 263 261 257 252 247 242 239 239 237 235 234 234 234 232 230 229 228 228 229 229 228 227 227 228 228 229 231 232 230 228 226 226 229 231 231 231 231 233 234 236 238 240 241 239 239 239 238
350 350 350 350 349 348 347 345 343 341 339 338 338 339 339 341 340 339 337 333 331 330 327 324 318 312 309 307 303 302 299 294 289 285 282 277 272 268 266 264 264 263 262 258 253 247 241 237 237 235 233 231 231 232 231 229 227 227 227 227 227 227 227 226 227 228 229 230 231 230 228 225 226 228 230 230 230 231 232 234 235 236 238 240 241 239 238 237
350 349 349 349 348 347 347 346 345 343 341 341 340 341 341 342 342 340 338 336 333 331 329 327 322 317 317 314 311 308 305 301 295 290 285 279 275 271 267 263 261 261 261 259 254 248 240 234 235 234 232 230 229 229 229 227 225 225 226 226 226 226 226 226 226 227 228 229 230 229 227 224 225 228 230 230 230 231 232 234 235 235 236 239 240 240 239 238
349 349 348 348 347 347 347 346 346 344 344 343 342 342 343 343 343 341 339 337 335 333 331 330 326 322 322 320 316 313 310 305 299 293 288 283 276 272 270 266 262 260 260 259 254 248 240 233 233 234 233 230 228 227 227 226 224 223 224 224 225 225 225 225 226 227 228 228 229 228 227 225 224 228 231 231 230 231 232 233 234 234 235 237 239 241 241 239
349 349 348 348 347 346 347 347 346 346 345 345 344 344 344 344 344 342 340 339 337 336 334 332 328 325 324 323 319 316 314 309 304 298 293 288 283 276 272 269 266 263 259 257 254 247 239 232 230 232 233 230 227 226 226 225 223 221 221 222 223 223 223 223 224 226 227 228 228 229 228 226 225 227 230 232 230 230 231 233 234 233 234 237 239 241 242 240
349 350 348 347 347 346 346 346 346 347 347 347 346 345 345 345 345 343 341 340 339 338 337 333 330 327 326 324 322 319 316 311 308 303 298 292 288 283 278 272 268 265 261 256 252 246 239 233 229 230 232 232 228 226 225 224 223 220 219 220 221 221 222 221 222 225 226 226 227 227 227 226 226 226 227 230 230 230 230 232 234 233 234 238 240 241 241 241
349 349 348 347 347 347 347 346 346 347 347 348 347 346 345 345 345 344 342 341 340 339 338 335 332 329 329 327 323 321 316 311 307 303 298 294 290 286 282 277 272 267 262 255 249 245 240 234 231 229 231 232 230 227 226 225 223 219 218 219 219 219 220 220 221 224 225 226 226 227 227 226 226 226 225 227 229 229 229 231 233 235 236 239 241 241 241 242
349 349 348 347 347 347 347 347 347 348 348 349 349 347 346 345 345 345 344 342 341 341 340 338 335 333 332 328 324 322 318 312 308 304 299 294 291 287 283 280 275 269 263 255 247 245 240 233 230 229 230 232 231 227 226 226 223 219 216 217 218 218 218 218 219 222 224 225 226 227 227 227 227 226 225 225 227 228 229 229 231 234 237 239 239 240 240 241
349 348 348 348 348 349 349 349 349 349 350 350 349 347 346 346 346 345 345 344 343 343 342 339 337 335 333 330 329 328 325 319 315 309 303 298 293 290 286 281 276 270 264 256 246 243 240 233 231 230 229 231 232 230 226 225 224 219 216 216 217 217 217 217 218 220 222 223 224 224 227 227 226 225 226 225 224 227 230 230 229 230 234 237 238 238 238 239
349 348 347 347 348 349 349 350 350 350 351 351 349 347 347 347 346 346 346 345 344 344 343 341 338 337 336 336 336 333 329 324 320 314 309 305 301 297 291 284 277 270 265 257 246 242 240 235 232 230 228 228 230 230 229 227 224 220 217 215 215 216 216 216 217 219 221 221 222 222 224 227 225 223 225 225 222 223 229 230 228 227 231 236 239 238 237 239
349 348 347 347 347 348 349 350 351 351 351 351 349 348 348 347 346 346 347 346 345 345 346 342 339 339 340 339 337 334 329 325 322 317 312 310 308 303 296 288 279 270 264 258 248 241 239 235 232 230 229 228 227 227 228 228 226 221 218 216 216 215 214 214 216 218 220 220 221 221 223 225 226 223 224 226 221 218 225 230 229 228 230 234 238 238 237 238
348 348 347 347 347 347 348 350 353 353 352 351 350 349 348 347 347 346 347 347 347 348 347 344 341 341 342 341 339 336 332 327 324 319 315 313 310 303 297 290 280 271 264 257 247 239 236 233 230 229 228 228 228 226 224 223 223 223 220 217 216 216 215 214 215 217 219 220 220 222 223 224 225 223 222 224 222 217 221 228 230 230 230 233 236 236 236 237
348 348 346 346 347 347 349 351 353 354 353 351 350 349 348 348 347 346 348 349 350 349 346 345 346 345 344 344 343 340 337 333 329 324 318 315 311 302 296 290 281 271 263 256 248 240 235 231 228 227 226 225 225 226 225 220 218 218 219 218 216 216 216 214 215 216 218 219 220 221 223 224 225 223 219 220 222 218 219 224 227 230 230 230 232 233 234 237
348 348 346 346 347 348 350 352 353 353 353 352 350 349 348 347 347 347 349 351 351 349 348 347 349 348 346 345 343 341 340 337 333 329 325 321 316 307 298 290 280 271 262 254 247 240 234 230 227 225 224 223 222 223 224 221 218 214 213 215 214 214 215 214 215 216 216 217 218 221 223 223 225 224 219 217 220 218 217 221 224 228 230 229 229 230 233 237
348 348 347 346 347 349 351 351 352 353 354 353 351 349 348 348 349 349 349 351 351 351 351 350 350 350 347 344 342 342 342 340 339 337 332 327 321 312 303 295 285 275 266 255 244 238 233 229 227 225 225 224 222 223 223 222 221 217 213 212 212 212 213 213 214 216 217 216 216 219 222 223 224 225 219 217 220 219 218 220 223 227 231 231 229 230 234 237
348 348 346 345 347 349 351 350 351 354 355 353 351 350 349 349 349 349 349 351 352 352 353 352 351 351 348 345 345 346 347 345 344 342 336 332 328 319 307 297 287 277 267 256 244 237 232 228 225 223 222 220 220 221 221 220 219 217 215 213 211 211 212 212 213 215 216 216 215 218 221 221 223 223 219 215 218 220 221 222 222 225 231 232 229 230 233 236
347 348 346 345 347 348 349 350 351 354 354 353 352 351 350 350 350 350 350 351 353 353 353 353 353 352 352 351 350 350 351 350 347 345 342 339 336 329 317 302 290 279 267 255 242 233 228 224 221 220 219 218 218 217 217 217 215 211 210 210 209 210 210 211 213 214 215 214 214 217 219 220 222 222 218 213 214 219 223 224 222 224 229 232 230 231 232 234
345 347 346 345 347 348 349 351 353 353 353 353 352 352 351 351 350 350 351 353 354 354 354 355 355 355 355 354 353 354 354 352 350 347 346 345 342 339 333 324 311 292 271 251 237 229 223 218 216 215 213 214 217 216 213 213 211 209 209 208 207 208 209 210 211 214 215 214 214 216 218 219 221 221 218 213 213 217 222 224 223 223 227 229 231 232 232 233
343 346 346 346 347 349 351 353 353 352 352 352 352 352 352 351 350 351 353 355 355 355 355 356 356 356 356 355 355 357 355 353 351 350 348 348 347 345 342 338 326 298 262 238 227 222 220 216 213 210 208 207 210 213 213 211 210 210 210 209 208 208 209 209 210 212 213 213 214 215 216 219 220 220 217 214 213 217 222 223 223 223 225 227 229 231 232 232
343 344 345 346 348 350 352 353 353 352 351 351 352 352 352 352 353 354 355 355 355 355 355 357 357 357 357 357 358 359 357 354 352 351 353 355 353 352 353 352 342 317 268 227 216 214 216 215 212 207 201 199 201 205 207 207 207 206 206 207 208 207 208 209 211 211 211 213 214 214 215 218 219 218 217 214 214 217 222 222 223 223 223 225 227 230 231 230
343 344 345 346 348 351 353 353 352 351 350 350 352 352 352 354 356 356 356 355 355 355 355 357 357 358 358 359 360 1 360 356 353 353 359 5 6 6 9 8 3 357 352 183 189 197 203 206 207 203 197 194 195 199 201 201 201 200 201 204 204 205 207 209 211 212 212 213 214 214 215 217 218 216 215 215 214 218 221 221 223 224 223 224 225 228 230 228
342 343 344 345 348 350 353 353 352 351 350 351 352 353 354 356 358 356 355 356 356 355 355 356 358 359 359 360 1 3 2 359 359 0 5 14 19 22 21 17 16 25 46 77 138 170 180 187 193 197 197 194 192 194 198 197 197 197 198 201 202 204 205 206 208 212 213 213 214 215 215 216 216 215 214 214 214 218 221 220 222 224 224 224 224 225 229 228
342 342 343 345 347 349 352 353 352 351 351 351 352 356 356 356 357 356 355 356 356 356 356 357 358 359 359 0 3 5 3 2 4 8 11 19 27 30 29 28 29 41 65 90 111 141 158 168 177 185 194 195 191 191 194 196 196 197 197 199 202 204 203 202 204 209 212 213 213 215 215 214 214 213 213 213 214 218 220 219 220 222 223 224 224 225 227 228
341 342 343 345 347 349 351 352 351 350 350 351 354 357 357 355 354 357 356 356 356 356 356 357 358 359 359 1 4 6 4 2 7 11 13 19 29 35 38 40 48 59 77 99 109 125 145 156 165 170 177 185 182 178 182 188 191 195 198 199 201 203 203 203 203 205 209 212 213 215 216 213 212 212 212 211 213 218 220 220 219 220 221 223 223 223 226 227
342 342 342 344 346 349 351 351 351 350 350 353 355 356 357 354 353 356 357 356 356 356 356 356 358 359 0 2 4 6 4 3 8 15 16 19 28 36 41 47 61 74 85 100 108 118 133 146 157 163 168 173 173 171 174 178 181 185 191 196 199 201 203 206 206 204 206 210 214 217 217 213 211 212 212 211 213 216 219 220 219 218 220 222 222 222 224 225
341 342 342 344 346 349 350 350 350 350 351 353 354 355 356 355 354 355 357 357 356 356 355 355 358 360 0 2 4 6 4 4 10 17 19 22 28 33 38 47 64 79 89 97 105 111 123 138 148 157 165 167 166 169 173 176 178 180 184 190 194 197 199 204 208 208 207 208 211 216 217 212 210 212 212 212 214 216 218 220 219 217 218 221 222 222 223 224
341 342 342 343 345 348 349 349 349 350 351 352 353 353 355 356 355 354 355 356 356 356 355 355 358 360 360 1 5 5 3 4 11 17 20 24 30 34 38 46 62 80 91 98 103 106 113 127 138 145 152 154 159 167 172 176 179 179 181 186 190 193 195 198 204 208 210 208 208 213 214 210 209 211 212 212 214 217 219 220 219 217 218 220 221 221 222 223
341 342 343 343 344 347 349 349 349 350 351 351 352 353 355 356 355 354 355 355 355 355 355 355 357 358 359 1 5 5 3 4 10 18 22 25 30 36 40 46 60 79 92 100 105 109 114 122 130 138 142 145 155 167 172 173 175 177 180 184 188 191 192 195 199 204 210 211 209 210 210 208 207 209 211 212 214 217 219 221 220 219 219 220 221 222 223 223
341 342 343 343 344 346 348 348 348 349 350 351 352 353 354 355 355 354 354 354 354 354 354 355 355 357 359 2 5 6 5 5 10 18 23 27 31 37 41 47 60 78 90 96 103 112 120 124 126 131 136 140 147 160 170 170 169 174 180 183 186 188 190 193 195 198 205 211 211 210 208 206 205 208 210 212 214 217 220 222 222 221 220 220 221 221 223 224
340 342 343 343 344 345 346 347 347 348 350 351 352 352 353 354 354 353 353 354 354 353 353 353 353 356 0 2 4 6 7 6 9 16 22 27 34 40 44 48 59 76 84 89 100 109 115 120 122 127 134 139 144 153 167 172 170 172 178 184 187 186 188 191 192 193 202 208 210 210 208 205 204 205 208 211 212 215 217 220 222 222 220 220 222 222 222 223
340 341 342 342 343 344 345 345 346 348 349 350 351 352 352 352 352 353 352 353 353 352 352 352 353 355 359 2 4 7 8 8 9 14 20 24 33 42 48 50 59 77 83 83 91 102 112 118 121 127 133 137 146 152 160 169 171 171 174 181 187 187 187 190 189 189 198 204 209 210 207 204 203 203 204 208 208 209 212 218 222 222 220 220 222 222 222 222
Height
10679 10677 10675 10673 10672 10671 10671 10672 10672 10672 10672 10672 10672 10672 10671 10671 10671 10670 10669 10668 10668 10668 10669 10669 10670 10671 10671 10670 10670 10670 10671 10672 10673 10675 10675 10673 10674 10676 10677 10677 10678 10680 10681 10684 10685 10686 10688 10691 10693 10694 10696 10699 10703 10709 10708 10707 10709 10711 10719 10736 10749 10758 10764 10765 10766 10770 10772 10772 10769 10769 10770 10773 10779 10779 10783 10784 10786 10789 10789 10791 10796 10804 10814 10818 10819 10820 10820 10821
10676 10674 10672 10670 10668 10667 10666 10666 10667 10667 10667 10667 10667 10666 10666 10665 10665 10664 10663 10662 10662 10662 10662 10662 10663 10664 10665 10664 10663 10664 10664 10665 10667 10668 10667 10666 10666 10668 10668 10669 10670 10672 10673 10675 10677 10679 10680 10682 10684 10684 10688 10692 10696 10700 10699 10699 10700 10704 10717 10733 10746 10755 10757 10756 10757 10761 10763 10765 10763 10761 10762 10766 10770 10772 10774 10775 10776 10780 10782 10786 10791 10801 10809 10813 10816 10817 10816 10816
10674 10672 10670 10667 10666 10664 10663 10662 10662 10662 10662 10662 10662 10661 10661 10660 10659 10658 10657 10656 10656 10655 10655 10655 10655 10655 10656 10657 10656 10656 10656 10657 10660 10658 10657 10657 10658 10658 10660 10661 10662 10663 10665 10666 10669 10671 10671 10672 10674 10676 10680 10685 10688 10690 10690 10692 10693 10699 10712 10728 10744 10749 10746 10747 10748 10750 10754 10757 10755 10753 10756 10758 10760 10763 10764 10766 10770 10772 10778 10783 10787 10796 10804 10808 10812 10811 10810 10811
10672 10670 10667 10665 10664 10662 10660 10659 10658 10658 10657 10657 10656 10656 10655 10654 10653 10652 10651 10650 10649 10648 10647 10647 10647 10647 10647 10648 10648 10648 10648 10649 10651 10648 10647 10648 10647 10649 10651 10652 10653 10655 10656 10658 10660 10662 10663 10664 10665 10668 10672 10677 10681 10679 10681 10686 10689 10694 10704 10722 10738 10736 10735 10740 10739 10741 10745 10747 10746 10745 10748 10751 10751 10753 10755 10761 10765 10769 10777 10781 10782 10791 10799 10802 10805 10804 10804 10807
10669 10667 10665 10663 10661 10660 10658 10657 10656 10654 10653 10653 10651 10651 10649 10648 10647 10646 10645 10643 10642 10640 10639 10639 10639 10639 10638 10638 10638 10638 10639 10640 10641 10638 10636 10637 10638 10641 10641 10642 10644 10646 10648 10649 10651 10653 10655 10656 10656 10659 10663 10670 10671 10670 10676 10682 10681 10683 10694 10714 10725 10723 10728 10731 10728 10733 10736 10735 10739 10737 10739 10744 10745 10748 10751 10757 10762 10768 10775 10777 10778 10783 10791 10796 10799 10801 10801 10803
10666 10664 10662 10660 10658 10657 10655 10654 10653 10651 10650 10649 10647 10646 10645 10643 10641 10640 10638 10636 10635 10633 10632 10631 10630 10630 10628 10628 10629 10629 10629 10630 10632 10629 10626 10626 10628 10629 10629 10630 10632 10636 10639 10641 10642 10643 10645 10646 10648 10651 10655 10659 10660 10662 10671 10672 10668 10671 10686 10706 10713 10716 10721 10722 10721 10728 10727 10724 10730 10732 10732 10735 10739 10745 10746 10750 10759 10764 10768 10773 10773 10771 10781 10793 10796 10798 10798 10799
10663 10661 10659 10656 10655 10653 10651 10649 10648 10647 10645 10644 10642 10641 10639 10638 10636 10634 10632 10630 10628 10626 10624 10623 10622 10621 10618 10619 10619 10619 10619 10619 10622 10621 10616 10614 10615 10616 10616 10618 10621 10626 10629 10630 10632 10634 10636 10637 10639 10643 10644 10649 10652 10656 10661 10659 10655 10662 10681 10698 10704 10708 10712 10714 10715 10720 10718 10716 10723 10726 10723 10722 10729 10740 10741 10747 10756 10758 10763 10766 10763 10763 10778 10791 10792 10794 10796 10796
10661 10658 10656 10653 10651 10649 10647 10645 10643 10642 10640 10638 10636 10635 10633 10631 10629 10627 10625 10622 10620 10618 10616 10614 10613 10612 10609 10609 10609 10609 10610 10610 10611 10611 10606 10602 10602 10604 10604 10606 10609 10615 10617 10619 10621 10623 10626 10628 10630 10632 10633 10640 10643 10645 10648 10644 10644 10658 10679 10692 10696 10700 10704 10706 10706 10709 10708 10707 10714 10715 10710 10712 10721 10733 10739 10745 10750 10751 10757 10755 10752 10763 10777 10784 10786 10790 10794 10795
10659 10656 10653 10651 10648 10646 10643 10641 10639 10637 10635 10633 10630 10628 10626 10624 10622 10619 10616 10613 10611 10609 10607 10604 10603 10601 10599 10597 10597 10597 10599 10601 10600 10598 10595 10591 10591 10593 10592 10592 10596 10603 10605 10607 10609 10611 10615 10618 10619 10619 10622 10629 10632 10634 10637 10634 10640 10658 10676 10683 10685 10690 10694 10694 10691 10695 10697 10696 10703 10705 10703 10710 10719 10727 10734 10741 10744 10745 10750 10746 10747 10763 10772 10775 10782 10784 10787 10791
10657 10654 10651 10648 10646 10643 10640 10638 10636 10633 10631 10628 10625 10622 10620 10617 10614 10611 10608 10605 10603 10600 10598 10595 10592 10591 10589 10585 10584 10585 10586 10589 10589 10586 10583 10579 10580 10581 10580 10580 10584 10589 10592 10594 10596 10599 10603 10606 10607 10607 10611 10619 10622 10626 10628 10626 10638 10655 10665 10669 10672 10678 10680 10677 10677 10683 10687 10688 10694 10699 10701 10711 10717 10717 10723 10734 10740 10741 10745 10744 10745 10757 10765 10768 10776 10779 10782 10786
10655 10652 10649 10646 10643 10640 10637 10635 10632 10630 10627 10624 10620 10617 10614 10611 10608 10604 10601 10597 10594 10592 10588 10585 10583 10580 10577 10573 10571 10572 10572 10574 10576 10574 10570 10566 10565 10567 10568 10569 10572 10575 10578 10580 10583 10586 10589 10592 10593 10594 10601 10610 10612 10615 10617 10620 10633 10645 10650 10656 10662 10666 10666 10664 10667 10675 10681 10682 10690 10698 10701 10707 10706 10703 10714 10731 10739 10740 10742 10740 10738 10747 10759 10763 10769 10776 10780 10782
10652 10649 10646 10643 10640 10637 10634 10631 10628 10626 10623 10619 10615 10612 10608 10604 10601 10597 10593 10590 10586 10583 10579 10576 10573 10569 10565 10560 10559 10560 10558 10558 10559 10558 10556 10553 10552 10552 10553 10556 10558 10560 10563 10566 10568 10570 10574 10578 10579 10582 10591 10599 10600 10602 10607 10613 10624 10632 10636 10645 10653 10655 10655 10654 10660 10671 10675 10679 10690 10694 10691 10694 10693 10698 10718 10733 10737 10738 10736 10732 10730 10736 10750 10758 10763 10772 10777 10776
10649 10646 10642 10639 10636 10633 10630 10627 10624 10621 10617 10613 10609 10604 10601 10597 10593 10588 10584 10581 10577 10573 10570 10566 10562 10558 10552 10546 10545 10545 10542 10542 10542 10540 10539 10537 10537 10538 10539 10540 10541 10543 10546 10550 10553 10555 10558 10563 10566 10570 10578 10585 10589 10593 10599 10604 10612 10620 10626 10634 10641 10642 10644 10647 10655 10668 10670 10675 10688 10682 10676 10686 10693 10704 10724 10731 10731 10731 10727 10724 10722 10724 10739 10754 10761 10767 10772 10769
10645 10641 10638 10635 10631 10628 10625 10622 10619 10615 10610 10606 10601 10597 10593 10589 10585 10580 10575 10571 10568 10564 10560 10555 10550 10545 10540 10534 10531 10530 10528 10527 10525 10522 10521 10520 10522 10524 10523 10522 10522 10525 10529 10534 10537 10538 10542 10546 10550 10557 10564 10571 10579 10583 10586 10591 10598 10608 10614 10621 10629 10631 10638 10645 10651 10661 10663 10671 10682 10670 10666 10685 10697 10707 10720 10724 10722 10719 10716 10716 10713 10712 10728 10752 10761 10762 10765 10763
10641 10637 10634 10630 10626 10623 10620 10616 10613 10608 10604 10599 10595 10590 10586 10582 10578 10572 10566 10562 10559 10554 10549 10544 10539 10533 10528 10522 10516 10516 10515 10511 10508 10506 10502 10502 10505 10507 10504 10503 10505 10509 10512 10515 10519 10521 10524 10527 10532 10542 10550 10556 10564 10567 10570 10577 10586 10596 10601 10609 10621 10626 10635 10642 10644 10651 10657 10666 10671 10657 10659 10683 10697 10705 10714 10716 10712 10706 10705 10709 10706 10704 10719 10747 10758 10756 10759 10759
10637 10633 10629 10625 10621 10618 10614 10610 10607 10602 10598 10594 10589 10583 10578 10574 10570 10563 10556 10553 10549 10544 10538 10533 10526 10521 10517 10511 10505 10503 10500 10495 10493 10491 10485 10486 10489 10489 10486 10486 10488 10491 10494 10496 10499 10502 10505 10509 10516 10527 10535 10540 10545 10550 10556 10563 10573 10582 10589 10601 10615 10621 10629 10636 10637 10644 10653 10658 10655 10644 10655 10680 10695 10701 10706 10705 10699 10694 10696 10701 10700 10698 10711 10737 10751 10750 10753 10753
10634 10630 10625 10621 10617 10613 10608 10604 10601 10597 10592 10588 10583 10576 10570 10565 10560 10553 10546 10543 10538 10532 10527 10521 10515 10509 10503 10500 10496 10492 10487 10482 10479 10475 10469 10469 10473 10471 10469 10469 10470 10473 10478 10479 10480 10483 10487 10492 10499 10509 10519 10524 10529 10536 10541 10549 10563 10575 10584 10596 10608 10615 10623 10629 10631 10639 10647 10645 10639 10635 10651 10677 10688 10691 10692 10690 10686 10685 10689 10693 10694 10693 10703 10726 10741 10744 10748 10748
10630 10626 10621 10617 10613 10608 10603 10599 10594 10590 10586 10581 10576 10569 10562 10556 10550 10542 10536 10533 10528 10521 10515 10509 10504 10498 10491 10489 10486 10480 10477 10473 10468 10464 10455 10452 10457 10455 10452 10452 10453 10455 10460 10461 10462 10465 10469 10473 10480 10489 10499 10506 10513 10520 10525 10540 10560 10571 10579 10590 10601 10607 10613 10621 10624 10629 10631 10629 10626 10625 10644 10671 10680 10678 10678 10677 10676 10679 10685 10687 10687 10687 10695 10715 10731 10736 10742 10742
10627 10622 10617 10613 10609 10603 10598 10593 10588 10583 10578 10573 10568 10562 10554 10547 10540 10532 10525 10522 10519 10511 10504 10500 10494 10487 10482 10481 10478 10472 10467 10462 10457 10454 10446 10439 10441 10441 10437 10437 10438 10439 10441 10443 10445 10448 10452 10455 10460 10470 10482 10492 10500 10506 10516 10536 10553 10560 10566 10575 10586 10593 10600 10608 10610 10611 10613 10611 10613 10617 10638 10665 10671 10665 10664 10667 10669 10671 10677 10680 10679 10680 10689 10707 10722 10728 10734 10736
10623 10618 10613 10609 10604 10599 10593 10588 10582 10577 10570 10565 10559 10553 10546 10539 10531 10522 10513 10511 10511 10503 10492 10489 10486 10477 10471 10469 10467 10463 10457 10449 10443 10442 10438 10431 10426 10426 10425 10424 10423 10424 10425 10427 10429 10432 10436 10440 10445 10456 10470 10478 10484 10490 10502 10521 10534 10541 10547 10555 10567 10576 10584 10592 10593 10597 10601 10599 10603 10613 10633 10656 10659 10653 10652 10657 10662 10662 10667 10672 10673 10675 10685 10702 10714 10720 10727 10731
10619 10614 10609 10604 10599 10594 10588 10582 10577 10571 10564 10558 10551 10545 10539 10531 10523 10514 10503 10496 10499 10497 10484 10478 10476 10469 10464 10459 10453 10451 10447 10438 10431 10428 10429 10424 10415 10411 10411 10412 10411 10410 10411 10413 10416 10419 10423 10429 10437 10447 10457 10462 10465 10471 10482 10498 10512 10520 10528 10537 10550 10560 10570 10577 10579 10586 10591 10588 10595 10609 10627 10644 10646 10641 10642 10647 10651 10653 10659 10667 10670 10674 10683 10696 10706 10712 10720 10726
10615 10610 10605 10600 10594 10589 10584 10577 10571 10564 10558 10551 10544 10537 10530 10523 10516 10508 10499 10486 10483 10485 10478 10470 10465 10459 10456 10450 10443 10439 10435 10429 10421 10416 10416 10414 10407 10402 10400 10400 10400 10399 10399 10400 10403 10407 10414 10422 10428 10434 10441 10445 10449 10454 10464 10480 10493 10502 10511 10520 10532 10546 10557 10563 10567 10575 10580 10580 10589 10604 10621 10634 10635 10631 10632 10635 10639 10646 10655 10662 10667 10673 10678 10686 10697 10705 10712 10719
10611 10606 10601 10596 10590 10584 10578 10572 10565 10558 10551 10543 10536 10529 10522 10515 10507 10499 10493 10482 10473 10470 10466 10461 10455 10449 10445 10439 10432 10429 10423 10418 10412 10407 10405 10402 10398 10394 10392 10390 10389 10389 10388 10390 10394 10398 10406 10414 10414 10416 10421 10426 10432 10439 10449 10464 10477 10486 10496 10504 10518 10534 10542 10550 10559 10567 10573 10576 10584 10598 10612 10622 10623 10618 10618 10622 10630 10642 10653 10658 10662 10669 10674 10679 10687 10695 10702 10712
10607 10602 10596 10591 10585 10579 10573 10566 10560 10552 10544 10536 10529 10523 10515 10507 10500 10491 10484 10477 10468 10460 10454 10451 10445 10440 10436 10428 10421 10418 10413 10408 10402 10397 10394 10392 10389 10385 10382 10382 10382 10380 10378 10381 10386 10390 10398 10402 10398 10399 10405 10411 10417 10425 10434 10447 10460 10472 10482 10492 10507 10521 10530 10543 10554 10560 10564 10568 10574 10586 10596 10604 10609 10605 10606 10617 10629 10641 10650 10652 10655 10664 10670 10674 10678 10682 10694 10709
10604 10598 10591 10586 10580 10574 10568 10561 10554 10547 10539 10531 10523 10516 10509 10501 10494 10486 10477 10470 10462 10453 10445 10440 10436 10430 10427 10421 10412 10407 10403 10398 10393 10389 10385 10381 10380 10378 10374 10373 10373 10372 10371 10373 10377 10383 10388 10388 10386 10388 10394 10400 10405 10412 10421 10432 10445 10457 10468 10480 10495 10509 10521 10536 10545 10548 10551 10554 10564 10575 10580 10592 10602 10600 10603 10616 10628 10636 10641 10643 10649 10661 10666 10669 10671 10677 10691 10705
10601 10595 10588 10581 10574 10568 10562 10556 10549 10542 10534 10526 10518 10510 10503 10496 10488 10479 10471 10463 10455 10448 10440 10432 10427 10422 10418 10414 10407 10399 10394 10389 10384 10380 10377 10372 10370 10369 10367 10365 10364 10364 10364 10365 10370 10374 10374 10373 10374 10377 10382 10387 10393 10401 10410 10419 10430 10442 10455 10468 10481 10496 10509 10522 10532 10535 10537 10546 10558 10566 10571 10585 10595 10595 10601 10612 10621 10629 10633 10637 10646 10657 10662 10665 10670 10676 10686 10697
10598 10592 10585 10578 10571 10562 10555 10549 10543 10536 10528 10520 10512 10503 10495 10488 10481 10473 10465 10457 10449 10442 10436 10429 10422 10416 10411 10405 10400 10394 10386 10381 10376 10372 10368 10365 10361 10360 10358 10357 10357 10356 10356 10359 10362 10362 10360 10362 10367 10369 10372 10376 10383 10392 10400 10408 10417 10429 10445 10456 10469 10483 10495 10508 10519 10521 10526 10538 10546 10550 10560 10574 10579 10585 10597 10606 10613 10621 10628 10634 10642 10654 10662 10665 10668 10673 10681 10691
10594 10589 10583 10576 10568 10559 10551 10543 10535 10528 10520 10512 10503 10494 10488 10481 10474 10466 10457 10450 10443 10436 10431 10424 10418 10412 10405 10397 10391 10388 10381 10375 10371 10367 10361 10357 10355 10353 10351 10349 10350 10349 10348 10351 10353 10351 10352 10356 10360 10362 10364 10368 10378 10388 10394 10399 10407 10422 10437 10446 10457 10470 10480 10496 10507 10510 10518 10527 10532 10540 10551 10560 10566 10579 10594 10599 10604 10613 10622 10632 10643 10654 10662 10663 10664 10668 10677 10687
10591 10585 10580 10573 10565 10557 10548 10539 10529 10521 10512 10504 10497 10489 10483 10476 10468 10460 10451 10442 10435 10429 10422 10415 10410 10404 10400 10392 10384 10380 10375 10368 10365 10361 10356 10351 10349 10347 10344 10343 10343 10342 10341 10344 10345 10344 10345 10349 10351 10354 10358 10363 10372 10381 10386 10390 10400 10416 10428 10435 10446 10456 10468 10484 10493 10500 10508 10513 10522 10537 10544 10549 10562 10577 10585 10590 10598 10609 10621 10635 10646 10653 10656 10656 10656 10662 10673 10683
10588 10582 10576 10570 10563 10555 10546 10537 10527 10518 10510 10502 10495 10487 10479 10470 10462 10454 10446 10437 10428 10422 10415 10408 10403 10398 10393 10387 10379 10371 10366 10361 10356 10354 10349 10345 10342 10341 10339 10337 10336 10335 10334 10337 10338 10337 10338 10342 10345 10349 10355 10360 10366 10372 10377 10382 10394 10409 10418 10425 10435 10445 10458 10472 10480 10487 10490 10493 10510 10528 10533 10538 10553 10567 10573 10582 10598 10613 10625 10635 10643 10648 10648 10646 10648 10657 10670 10678
10584 10578 10572 10565 10559 10552 10544 10536 10527 10517 10508 10499 10491 10482 10473 10464 10456 10448 10440 10431 10423 10417 10409 10402 10397 10392 10385 10378 10373 10365 10359 10354 10350 10346 10343 10339 10336 10334 10333 10331 10330 10329 10328 10330 10332 10332 10334 10337 10341 10345 10350 10353 10358 10365 10371 10378 10390 10401 10408 10416 10423 10432 10446 10458 10467 10471 10471 10480 10500 10515 10522 10527 10539 10557 10566 10577 10601 10618 10623 10627 10635 10642 10643 10640 10643 10654 10667 10673
10580 10574 10568 10561 10553 10546 10540 10532 10522 10512 10502 10494 10485 10477 10468 10459 10452 10444 10436 10428 10420 10413 10406 10397 10390 10386 10381 10373 10368 10363 10356 10350 10345 10339 10336 10334 10331 10329 10327 10326 10325 10324 10323 10325 10327 10328 10329 10332 10336 10340 10344 10346 10351 10358 10366 10375 10386 10394 10401 10407 10413 10421 10434 10446 10454 10458 10464 10479 10495 10507 10516 10520 10531 10554 10567 10579 10602 10616 10617 10620 10629 10636 10638 10636 10639 10652 10663 10667
10576 10569 10563 10557 10550 10542 10535 10526 10516 10507 10497 10489 10481 10473 10465 10456 10447 10440 10433 10425 10416 10408 10402 10395 10385 10378 10375 10369 10363 10358 10352 10346 10341 10335 10331 10329 10327 10325 10322 10321 10321 10319 10319 10320 10322 10324 10324 10328 10331 10335 10338 10342 10347 10353 10359 10369 10379 10388 10395 10402 10408 10417 10428 10439 10448 10455 10465 10478 10493 10506 10512 10516 10529 10549 10565 10581 10600 10611 10614 10618 10624 10628 10632 10633 10636 10647 10656 10658
10573 10566 10559 10552 10545 10536 10526 10517 10510 10503 10495 10486 10478 10469 10462 10454 10445 10437 10429 10420 10410 10402 10397 10391 10383 10373 10366 10361 10355 10351 10347 10342 10337 10333 10328 10325 10323 10321 10318 10317 10316 10315 10316 10317 10318 10320 10321 10323 10326 10329 10334 10338 10343 10348 10354 10361 10368 10376 10388 10396 10405 10414 10425 10437 10445 10451 10462 10475 10491 10502 10503 10512 10526 10540 10562 10584 10595 10604 10611 10614 10616 10618 10623 10627 10631 10641 10646 10648
10571 10565 10557 10548 10540 10531 10522 10515 10510 10503 10495 10485 10475 10466 10459 10452 10442 10432 10424 10417 10409 10402 10393 10385 10379 10372 10363 10357 10352 10347 10342 10338 10333 10329 10325 10321 10319 10317 10315 10314 10313 10312 10312 10314 10316 10317 10318 10320 10322 10326 10329 10333 10339 10344 10349 10354 10359 10367 10377 10385 10397 10410 10421 10433 10440 10446 10457 10470 10487 10493 10495 10511 10524 10536 10564 10584 10585 10592 10601 10603 10606 10610 10615 10622 10629 10637 10640 10643
10570 10563 10555 10547 10539 10532 10524 10517 10511 10503 10493 10483 10471 10461 10452 10444 10435 10426 10420 10416 10409 10401 10393 10384 10377 10372 10365 10358 10352 10346 10339 10333 10329 10325 10322 10318 10316 10314 10312 10311 10310 10310 10310 10311 10313 10314 10316 10318 10321 10324 10327 10333 10339 10342 10345 10352 10360 10368 10374 10382 10397 10407 10414 10425 10433 10440 10451 10463 10478 10486 10493 10510 10520 10531 10558 10574 10575 10585 10593 10596 10605 10610 10614 10621 10629 10635 10638 10642
10570 10563 10557 10550 10541 10532 10525 10517 10509 10500 10491 10481 10469 10458 10448 10440 10433 10424 10416 10410 10403 10395 10390 10383 10377 10371 10365 10357 10350 10343 10337 10330 10326 10323 10319 10316 10313 10312 10310 10309 10308 10307 10308 10309 10310 10312 10314 10316 10319 10322 10326 10330 10334 10337 10343 10351 10359 10368 10378 10388 10396 10399 10405 10416 10425 10433 10443 10457 10474 10481 10487 10502 10510 10519 10545 10565 10574 10584 10589 10594 10605 10610 10611 10618 10627 10632 10635 10641
10569 10564 10557 10548 10539 10530 10523 10513 10503 10495 10489 10480 10468 10457 10447 10438 10431 10423 10414 10406 10398 10390 10384 10378 10372 10366 10360 10353 10345 10340 10334 10328 10324 10320 10317 10314 10312 10310 10309 10308 10307 10306 10306 10307 10308 10310 10312 10314 10317 10319 10323 10326 10330 10335 10342 10349 10356 10365 10372 10376 10382 10388 10398 10410 10419 10427 10437 10454 10469 10475 10482 10496 10501 10511 10539 10562 10573 10581 10585 10590 10601 10607 10609 10615 10623 10625 10630 10638
10564 10561 10554 10545 10536 10528 10518 10508 10498 10491 10485 10478 10467 10456 10446 10436 10428 10422 10414 10404 10395 10388 10381 10375 10369 10362 10356 10350 10343 10337 10332 10327 10323 10319 10316 10313 10310 10309 10307 10306 10306 10305 10305 10306 10307 10308 10310 10312 10314 10317 10321 10325 10330 10336 10342 10347 10353 10359 10360 10365 10375 10385 10394 10406 10416 10425 10436 10451 10463 10469 10479 10489 10492 10508 10539 10560 10571 10577 10578 10582 10593 10601 10605 10611 10616 10619 10626 10636
10561 10557 10553 10545 10536 10527 10516 10506 10497 10488 10481 10476 10468 10457 10446 10438 10429 10419 10409 10400 10393 10386 10380 10374 10367 10361 10355 10349 10342 10337 10331 10327 10323 10319 10316 10312 10310 10308 10306 10305 10305 10304 10304 10305 10306 10307 10309 10311 10313 10316 10320 10325 10331 10336 10341 10346 10351 10356 10363 10372 10381 10387 10396 10407 10414 10422 10434 10446 10455 10464 10476 10481 10489 10512 10539 10556 10566 10569 10568 10574 10585 10594 10600 10605 10609 10614 10622 10632
10559 10553 10549 10543 10535 10526 10516 10508 10500 10491 10483 10477 10469 10459 10448 10438 10427 10415 10405 10398 10391 10384 10378 10373 10367 10361 10355 10349 10342 10337 10332 10328 10324 10320 10317 10313 10311 10308 10306 10305 10305 10305 10305 10305 10306 10307 10309 10311 10314 10317 10320 10324 10328 10332 10336 10342 10348 10357 10367 10376 10382 10390 10398 10406 10411 10420 10431 10440 10449 10461 10471 10476 10489 10515 10537 10550 10559 10561 10560 10569 10579 10586 10594 10599 10604 10610 10618 10628
10558 10550 10545 10541 10533 10524 10515 10507 10499 10491 10482 10473 10466 10457 10447 10436 10424 10413 10406 10400 10391 10384 10378 10373 10368 10361 10356 10350 10344 10338 10334 10330 10326 10322 10318 10315 10312 10310 10307 10306 10305 10305 10305 10305 10306 10308 10309 10312 10315 10318 10320 10322 10325 10330 10334 10339 10346 10355 10362 10369 10377 10385 10392 10402 10414 10424 10432 10438 10449 10460 10467 10475 10493 10517 10533 10541 10549 10551 10553 10565 10574 10580 10588 10593 10599 10606 10613 10622
10556 10549 10543 10537 10530 10523 10516 10507 10496 10486 10476 10467 10460 10451 10439 10430 10422 10414 10408 10401 10392 10385 10380 10374 10368 10361 10356 10350 10345 10339 10335 10332 10327 10323 10320 10317 10314 10311 10308 10307 10306 10306 10306 10306 10307 10308 10310 10313 10315 10319 10321 10323 10326 10330 10334 10339 10345 10351 10358 10366 10374 10381 10390 10404 10416 10424 10431 10439 10449 10457 10465 10478 10496 10513 10522 10529 10538 10542 10548 10561 10569 10574 10582 10588 10595 10601 10608 10616
10552 10546 10540 10534 10527 10521 10514 10507 10497 10487 10477 10467 10457 10445 10432 10426 10423 10417 10407 10400 10393 10386 10379 10374 10367 10361 10356 10351 10346 10340 10336 10333 10329 10325 10321 10318 10315 10312 10310 10309 10308 10308 10308 10308 10308 10310 10311 10313 10316 10320 10323 10327 10330 10334 10340 10345 10350 10356 10361 10367 10374 10382 10392 10402 10410 10418 10428 10436 10445 10452 10460 10475 10491 10503 10513 10524 10534 10537 10542 10553 10562 10568 10577 10584 10590 10598 10604 10612
10552 10544 10537 10531 10525 10518 10511 10505 10497 10488 10479 10467 10454 10444 10435 10427 10423 10418 10409 10400 10393 10386 10379 10374 10369 10363 10358 10352 10347 10342 10338 10334 10330 10326 10323 10320 10316 10313 10311 10310 10310 10310 10309 10309 10310 10311 10313 10315 10318 10321 10325 10329 10333 10337 10343 10349 10355 10361 10368 10373 10379 10386 10394 10400 10405 10414 10424 10433 10441 10446 10455 10471 10486 10497 10509 10521 10528 10530 10536 10547 10556 10564 10572 10577 10585 10594 10601 10609
10552 10543 10535 10528 10523 10515 10508 10502 10495 10486 10477 10465 10454 10447 10442 10431 10421 10417 10411 10402 10393 10387 10381 10377 10372 10366 10360 10354 10349 10345 10341 10337 10333 10329 10325 10323 10319 10316 10314 10313 10312 10312 10312 10312 10312 10313 10315 10318 10320 10322 10326 10330 10334 10338 10342 10348 10353 10361 10368 10375 10381 10387 10396 10403 10409 10416 10423 10430 10439 10446 10456 10473 10487 10496 10506 10516 10521 10525 10532 10542 10551 10560 10567 10572 10580 10589 10596 10604
10549 10543 10535 10527 10520 10513 10505 10498 10491 10482 10471 10463 10456 10450 10444 10434 10422 10414 10410 10404 10397 10390 10384 10379 10375 10369 10363 10358 10352 10348 10344 10341 10336 10332 10329 10326 10323 10320 10317 10316 10315 10314 10314 10315 10315 10316 10318 10320 10322 10325 10328 10332 10337 10340 10345 10349 10354 10359 10365 10372 10379 10386 10395 10405 10414 10421 10424 10429 10438 10447 10458 10475 10486 10493 10502 10511 10516 10522 10528 10536 10546 10556 10563 10569 10578 10586 10593 10599
10545 10540 10533 10525 10518 10513 10506 10497 10489 10479 10469 10461 10456 10449 10442 10434 10424 10414 10408 10405 10400 10393 10387 10381 10376 10371 10366 10361 10356 10350 10347 10344 10340 10336 10332 10329 10326 10323 10321 10319 10318 10317 10317 10318 10318 10319 10321 10323 10326 10328 10332 10336 10339 10342 10346 10351 10356 10361 10365 10371 10377 10384 10393 10404 10413 10421 10427 10431 10437 10444 10456 10470 10481 10488 10497 10507 10513 10519 10525 10533 10543 10554 10560 10566 10574 10583 10590 10595
10540 10533 10526 10519 10513 10508 10503 10495 10486 10478 10470 10462 10454 10446 10439 10432 10425 10417 10410 10403 10399 10394 10388 10382 10377 10374 10370 10364 10359 10354 10350 10347 10343 10340 10336 10332 10329 10326 10324 10323 10322 10321 10321 10321 10322 10323 10324 10326 10329 10332 10335 10339 10342 10345 10349 10354 10360 10365 10369 10373 10379 10386 10395 10402 10410 10419 10429 10435 10438 10442 10452 10464 10474 10482 10493 10502 10509 10516 10524 10532 10542 10550 10556 10563 10572 10581 10587 10592
10538 10531 10523 10514 10507 10502 10497 10491 10485 10478 10471 10463 10453 10444 10437 10431 10425 10418 10412 10405 10399 10394 10389 10384 10381 10378 10373 10366 10361 10358 10354 10350 10346 10343 10339 10336 10333 10330 10328 10327 10326 10325 10324 10325 10326 10327 10328 10329 10332 10336 10339 10342 10346 10350 10354 10359 10363 10368 10371 10375 10380 10387 10396 10403 10410 10419 10428 10433 10438 10444 10452 10463 10472 10482 10491 10500 10508 10517 10524 10531 10539 10546 10553 10561 10570 10578 10583 10588
10538 10532 10525 10515 10506 10500 10496 10491 10484 10478 10470 10462 10454 10445 10437 10431 10426 10419 10413 10408 10403 10396 10391 10387 10383 10379 10374 10369 10364 10360 10357 10354 10350 10346 10343 10340 10337 10335 10333 10332 10331 10329 10329 10330 10331 10331 10332 10334 10336 10339 10342 10345 10349 10353 10357 10362 10366 10371 10376 10380 10384 10390 10397 10404 10411 10419 10426 10433 10439 10445 10453 10463 10473 10484 10494 10502 10511 10519 10525 10529 10535 10542 10551 10559 10567 10573 10579 10584
10533 10528 10523 10516 10506 10498 10494 10489 10483 10476 10467 10460 10454 10446 10437 10431 10427 10420 10413 10408 10404 10398 10393 10388 10384 10379 10376 10372 10367 10363 10360 10357 10353 10350 10347 10344 10341 10339 10338 10336 10335 10334 10334 10335 10336 10336 10337 10338 10340 10342 10345 10348 10352 10355 10359 10364 10368 10373 10378 10384 10390 10396 10400 10405 10412 10420 10427 10435 10440 10444 10453 10463 10472 10484 10494 10501 10509 10517 10523 10528 10532 10539 10549 10559 10565 10570 10576 10581